Flag for United Kingdom Weather past 2 weeks in Cambridge, England, United Kingdom

Now
43 °F

Passing clouds.


Feels Like: 36 °F
Forecast: 39 / 47 °F
Wind: 14 mph from Southwest

Location: Cambridge Airport

Current Time: Dec 20, 2014 at 8:04:22 AM

Latest Report: Dec 20, 2014 at 7:20 AM


Visibility: N/A

Pressure: 30.15 "Hg

Humidity: 81%

Dew point: 37 °F

Location of CambridgeLocation

Historic Weather in Cambridge — Graph

°F

Cambridge temperature yesterday

Maximum temperature yesterday: 48 °F (at 7:50 AM)
Minimum temperature yesterday: 43 °F (at 5:20 PM)
Average temperature yesterday: 46 °F

Past Weeks' High & Low Weather Summary

 TemperatureHumidityPressure
High57 °F (Dec 18, 11:50 AM)100% (Dec 4, 7:50 PM)30.36 "Hg (Dec 4, 7:50 PM)
Low28 °F (Dec 6, 7:50 AM)62% (Dec 10, 11:50 AM)29.21 "Hg (Dec 12, 7:50 AM)
Average43 °F82%29.91 "Hg
* Reported Dec 4 7:50 PM — Dec 19 7:50 PM, Cambridge, Weather by CustomWeather, © 2014

Note: Actual official high and low records may vary slightly from our data, if they occured in-between our weather recording intervals... More about our weather records

Advertising

Cambridge weather history for previous 24 hours

 ConditionsComfort  
Time TempWeatherWind HumidityBarometerVisibility
7:50 PM
Dec 19
43 °FClear.15 mph76%30.09 "Hg10 mi
7:20 PM43 °FClear.16 mph76%30.09 "Hg10 mi
6:50 PM43 °FClear.15 mph76%30.07 "Hg10 mi
6:20 PM45 °FClear.14 mph71%30.07 "Hg10 mi
5:50 PM43 °FPassing clouds.12 mph76%30.07 "HgN/A
5:20 PM43 °FPassing clouds.13 mph76%30.07 "HgN/A
4:50 PM45 °FPassing clouds.15 mph71%30.04 "HgN/A
4:20 PM45 °FPassing clouds.13 mph71%30.01 "HgN/A
3:50 PM45 °FPassing clouds.12 mph76%30.01 "HgN/A
3:20 PM46 °FScattered clouds.16 mph66%30.01 "HgN/A
2:50 PM46 °FPassing clouds.14 mph66%29.98 "HgN/A
1:50 PM48 °FPassing clouds.16 mph66%29.98 "HgN/A
1:20 PM48 °FPassing clouds.20 mph66%29.95 "HgN/A
12:50 PM48 °FPassing clouds.20 mph62%29.95 "HgN/A
12:20 PM48 °FPassing clouds.17 mph66%29.95 "HgN/A
11:50 AM48 °FPassing clouds.21 mph66%29.95 "HgN/A
11:20 AM46 °FSunny.16 mph71%29.92 "Hg10 mi
10:50 AM46 °FPassing clouds.15 mph71%29.92 "HgN/A
10:20 AM46 °FPassing clouds.12 mph71%29.92 "HgN/A
9:50 AM48 °FPassing clouds.13 mph66%29.89 "HgN/A
9:20 AM46 °FPassing clouds.14 mph76%29.89 "HgN/A
8:50 AM46 °FBroken clouds.9 mph87%29.86 "HgN/A
8:20 AM48 °FScattered clouds.9 mph82%29.86 "HgN/A
Weather by CustomWeather, © 2014

See weather overviewHow to use our weather pages